QPF
0.00 0.00 0.00 0.00 0.00 0.00 0.00 0.00 0.00 0.00 0.00 0.00 0.00 0.00 0.00 0.00 0.00 0.00 0.00 0.00 0.00 0.00 0.00 0.00 0.00 0.00 0.00 0.00 0.00 0.00 0.00 0.00 0.00 0.00 0.00 0.00 0.00 0.00 0.00 0.00 0.00 0.00 0.00
0.00 0.00 0.00 0.00 0.00 0.00 0.00 0.00 0.00 0.00 0.00 0.00 0.00 0.00 0.00 0.00 0.00 0.00 0.00 0.00 0.00 0.00 0.00 0.00 0.00 0.00 0.00 0.00 0.00 0.00 0.00 0.00 0.00 0.00 0.00 0.00 0.00 0.00 0.00 0.00 0.00 0.00 0.00
0.00 0.00 0.00 0.00 0.00 0.00 0.00 0.00 0.00 0.00 0.00 0.00 0.00 0.00 0.00 0.00 0.00 0.00 0.00 0.00 0.00 0.00 0.00 0.00 0.00 0.00 0.00 0.00 0.00 0.00 0.00 0.00 0.00 0.00 0.00 0.00 0.00 0.00 0.00 0.00 0.00 0.00 0.00
0.00 0.00 0.00 0.00 0.00 0.00 0.00 0.00 0.00 0.00 0.00 0.00 0.00 0.00 0.00 0.00 0.00 0.00 0.00 0.00 0.00 0.00 0.00 0.00 0.00 0.00 0.00 0.00 0.00 0.00 0.00 0.00 0.00 0.00 0.00 0.00 0.00 0.00 0.00 0.00 0.00 0.00 0.00
0.00 0.00 0.00 0.00 0.00 0.00 0.00 0.00 0.00 0.00 0.00 0.00 0.00 0.00 0.00 0.00 0.00 0.00 0.00 0.00 0.00 0.00 0.00 0.00 0.00 0.00 0.00 0.00 0.00 0.00 0.00 0.00 0.00 0.00 0.00 0.00 0.00 0.00 0.00 0.00 0.00 0.00 0.00
0.00 0.00 0.00 0.00 0.00 0.00 0.00 0.00 0.00 0.00 0.00 0.00 0.00 0.00 0.00 0.00 0.00 0.00 0.00 0.00 0.00 0.00 0.00 0.00 0.00 0.00 0.00 0.00 0.00 0.00 0.00 0.00 0.00 0.00 0.00 0.00 0.00 0.00 0.00 0.00 0.00 0.00 0.00
0.00 0.00 0.00 0.00 0.00 0.00 0.00 0.00 0.00 0.00 0.00 0.00 0.00 0.00 0.00 0.00 0.00 0.00 0.00 0.00 0.00 0.00 0.00 0.00 0.00 0.00 0.00 0.00 0.00 0.00 0.00 0.00 0.00 0.00 0.00 0.00 0.00 0.00 0.00 0.00 0.00 0.00 0.00
0.00 0.00 0.00 0.00 0.00 0.00 0.00 0.00 0.00 0.00 0.00 0.00 0.00 0.00 0.00 0.00 0.00 0.00 0.00 0.00 0.00 0.00 0.00 0.00 0.00 0.00 0.00 0.00 0.00 0.00 0.00 0.00 0.00 0.00 0.00 0.00 0.00 0.00 0.00 0.01 0.03 0.04 0.05
0.00 0.00 0.00 0.00 0.00 0.00 0.00 0.00 0.00 0.00 0.00 0.00 0.00 0.00 0.00 0.00 0.00 0.00 0.00 0.00 0.00 0.00 0.00 0.00 0.00 0.00 0.00 0.00 0.00 0.00 0.00 0.00 0.00 0.00 0.00 0.00 0.00 0.02 0.12 0.17 0.13 0.15 0.13
0.00 0.00 0.00 0.00 0.00 0.00 0.00 0.00 0.00 0.00 0.00 0.00 0.00 0.00 0.00 0.00 0.00 0.00 0.00 0.00 0.00 0.00 0.00 0.00 0.00 0.00 0.00 0.00 0.00 0.01 0.00 0.00 0.00 0.00 0.00 0.00 0.00 0.05 0.12 0.19 0.22 0.26 0.32
0.00 0.00 0.00 0.00 0.00 0.00 0.00 0.00 0.00 0.00 0.00 0.00 0.00 0.00 0.00 0.00 0.00 0.00 0.00 0.00 0.00 0.00 0.00 0.00 0.00 0.00 0.00 0.00 0.00 0.01 0.00 0.00 0.00 0.00 0.00 0.00 0.02 0.03 0.15 0.29 0.32 0.65 1.26
0.00 0.00 0.00 0.00 0.00 0.00 0.00 0.00 0.00 0.00 0.00 0.00 0.00 0.00 0.00 0.00 0.00 0.00 0.00 0.00 0.00 0.00 0.00 0.00 0.00 0.00 0.00 0.00 0.00 0.00 0.00 0.01 0.03 0.03 0.02 0.01 0.03 0.07 0.20 0.32 0.46 1.06 1.18
0.00 0.00 0.00 0.00 0.00 0.00 0.00 0.00 0.00 0.00 0.00 0.00 0.00 0.00 0.00 0.00 0.00 0.00 0.00 0.00 0.00 0.00 0.00 0.00 0.00 0.00 0.00 0.00 0.00 0.00 0.01 0.01 0.03 0.05 0.03 0.04 0.11 0.17 0.18 0.23 0.68 1.79 2.23
0.00 0.00 0.00 0.00 0.00 0.00 0.00 0.00 0.00 0.00 0.00 0.00 0.00 0.00 0.00 0.00 0.00 0.00 0.00 0.00 0.00 0.00 0.00 0.00 0.00 0.00 0.00 0.01 0.01 0.01 0.00 0.00 0.01 0.02 0.03 0.09 0.15 0.17 0.34 0.93 1.99 2.00 0.95
0.00 0.00 0.00 0.00 0.00 0.00 0.00 0.00 0.00 0.00 0.00 0.00 0.00 0.00 0.00 0.00 0.00 0.00 0.00 0.00 0.00 0.00 0.00 0.00 0.00 0.00 0.00 0.00 0.00 0.00 0.00 0.00 0.00 0.02 0.08 0.11 0.13 0.29 0.92 1.25 0.79 0.27 0.10
0.00 0.00 0.00 0.00 0.00 0.00 0.00 0.00 0.00 0.00 0.00 0.00 0.00 0.00 0.00 0.00 0.00 0.00 0.00 0.00 0.00 0.00 0.00 0.00 0.00 0.00 0.00 0.00 0.00 0.00 0.00 0.00 0.00 0.00 0.01 0.03 0.11 0.36 0.44 0.15 0.05 0.05 0.05
0.00 0.00 0.00 0.00 0.00 0.00 0.00 0.00 0.00 0.00 0.00 0.00 0.00 0.00 0.00 0.00 0.00 0.00 0.01 0.01 0.00 0.00 0.00 0.00 0.00 0.00 0.00 0.00 0.00 0.00 0.00 0.00 0.00 0.00 0.00 0.00 0.02 0.02 0.02 0.03 0.03 0.02 0.01
0.00 0.00 0.00 0.00 0.00 0.00 0.00 0.00 0.00 0.00 0.00 0.00 0.00 0.00 0.00 0.00 0.01 0.01 0.00 0.01 0.00 0.01 0.00 0.00 0.00 0.00 0.00 0.00 0.00 0.00 0.00 0.00 0.00 0.00 0.00 0.00 0.00 0.00 0.00 0.01 0.00 0.00 0.00
0.00 0.00 0.00 0.00 0.00 0.00 0.00 0.00 0.00 0.00 0.00 0.00 0.00 0.00 0.00 0.01 0.01 0.03 0.04 0.01 0.01 0.01 0.00 0.00 0.00 0.00 0.00 0.00 0.00 0.00 0.00 0.00 0.00 0.00 0.00 0.01 0.00 0.00 0.00 0.00 0.00 0.00 0.00
0.00 0.00 0.00 0.00 0.00 0.00 0.00 0.00 0.00 0.00 0.00 0.00 0.00 0.00 0.00 0.00 0.02 0.02 0.02 0.00 0.00 0.00 0.00 0.00 0.00 0.00 0.00 0.00 0.00 0.00 0.00 0.00 0.00 0.00 0.00 0.00 0.00 0.00 0.00 0.00 0.00 0.00 0.00
0.00 0.00 0.00 0.00 0.00 0.00 0.00 0.00 0.00 0.00 0.00 0.00 0.00 0.00 0.00 0.00 0.00 0.00 0.01 0.01 0.00 0.00 0.00 0.00 0.00 0.00 0.00 0.00 0.00 0.00 0.00 0.00 0.00 0.00 0.00 0.00 0.00 0.00 0.00 0.00 0.00 0.00 0.00
0.00 0.01 0.00 0.00 0.00 0.01 0.01 0.00 0.00 0.00 0.00 0.00 0.01 0.01 0.01 0.00 0.00 0.00 0.01 0.00 0.00 0.00 0.00 0.00 0.00 0.00 0.00 0.00 0.00 0.00 0.00 0.00 0.00 0.00 0.00 0.00 0.00 0.00 0.00 0.00 0.00 0.00 0.00
0.01 0.01 0.03 0.01 0.00 0.01 0.03 0.02 0.01 0.00 0.00 0.01 0.00 0.00 0.00 0.00 0.00 0.00 0.00 0.00 0.00 0.00 0.00 0.00 0.00 0.00 0.00 0.00 0.00 0.00 0.00 0.00 0.00 0.00 0.00 0.00 0.00 0.00 0.00 0.00 0.00 0.00 0.00
0.01 0.01 0.01 0.03 0.02 0.01 0.00 0.00 0.00 0.00 0.00 0.00 0.00 0.00 0.00 0.00 0.00 0.00 0.00 0.00 0.00 0.00 0.00 0.00 0.00 0.00 0.00 0.00 0.00 0.00 0.00 0.00 0.00 0.00 0.00 0.00 0.00 0.00 0.00 0.00 0.00 0.00 0.00
0.01 0.02 0.01 0.00 0.03 0.04 0.03 0.02 0.01 0.01 0.00 0.00 0.00 0.00 0.00 0.00 0.00 0.00 0.00 0.00 0.00 0.00 0.00 0.00 0.00 0.00 0.00 0.00 0.00 0.00 0.00 0.00 0.00 0.00 0.00 0.00 0.00 0.00 0.00 0.00 0.00 0.00 0.00
0.06 0.05 0.03 0.02 0.00 0.01 0.02 0.01 0.01 0.00 0.00 0.00 0.00 0.00 0.00 0.00 0.00 0.00 0.00 0.00 0.00 0.00 0.00 0.00 0.00 0.00 0.00 0.00 0.00 0.00 0.00 0.00 0.00 0.00 0.00 0.00 0.00 0.00 0.00 0.00 0.00 0.00 0.00
MSLP
1008.70 1009.39 1010.13 1010.75 1011.30 1011.98 1012.54 1012.96 1013.38 1013.81 1014.04 1014.22 1014.35 1014.83 1015.23 1015.71 1016.07 1016.52 1016.85 1017.14 1017.40 1017.57 1017.61 1017.69 1017.71 1017.83 1018.12 1018.16 1018.41 1018.47 1018.76 1018.94 1019.14 1018.55 1018.49 1017.97 1018.14 1018.06 1018.30 1018.69 1018.83 1018.99 1019.05
1007.61 1008.54 1009.30 1009.97 1010.68 1011.29 1011.71 1012.22 1012.67 1013.06 1013.34 1013.59 1013.92 1014.36 1014.75 1015.13 1015.41 1015.82 1016.13 1016.46 1016.76 1016.98 1016.96 1017.08 1017.06 1017.45 1017.57 1017.64 1017.78 1017.90 1018.11 1018.23 1018.53 1018.69 1018.33 1018.10 1017.99 1017.88 1017.81 1018.14 1018.18 1018.24 1018.41
1007.04 1007.85 1008.56 1009.23 1009.83 1010.33 1010.83 1011.34 1011.86 1012.21 1012.53 1012.92 1013.39 1013.73 1014.15 1014.54 1014.75 1014.89 1015.27 1015.63 1015.83 1015.90 1016.12 1016.37 1016.46 1016.84 1016.94 1017.04 1017.26 1017.47 1017.64 1017.82 1018.26 1018.37 1018.04 1017.78 1017.55 1017.46 1017.51 1017.63 1017.75 1017.62 1017.77
1006.19 1006.96 1007.56 1008.01 1008.62 1009.27 1009.79 1010.30 1010.79 1011.26 1011.84 1012.23 1012.53 1012.90 1013.31 1013.67 1013.95 1014.18 1014.50 1014.81 1014.97 1015.10 1015.33 1015.54 1015.67 1015.93 1015.98 1016.29 1016.56 1016.63 1016.80 1017.19 1017.47 1017.63 1017.73 1017.55 1017.39 1017.09 1017.07 1017.27 1017.52 1017.41 1017.31
1005.07 1005.79 1006.21 1006.99 1007.59 1008.19 1008.77 1009.33 1009.79 1010.29 1010.72 1011.15 1011.75 1012.17 1012.39 1012.69 1012.98 1013.37 1013.67 1013.86 1014.08 1014.28 1014.43 1014.60 1014.67 1014.80 1014.89 1015.13 1015.52 1015.60 1016.09 1016.48 1016.76 1016.99 1017.21 1016.93 1016.57 1016.57 1016.24 1016.32 1016.58 1016.52 1016.42
1003.74 1004.33 1005.20 1006.06 1006.67 1007.22 1007.78 1008.31 1008.87 1009.36 1009.79 1010.30 1010.73 1011.05 1011.40 1011.52 1011.76 1012.15 1012.56 1012.87 1013.07 1013.27 1013.47 1013.51 1013.65 1013.80 1014.09 1014.18 1014.22 1014.40 1014.76 1015.05 1015.37 1015.70 1015.59 1015.54 1014.99 1014.94 1014.97 1015.23 1015.65 1016.20 1016.41
1002.79 1003.47 1004.38 1005.08 1005.77 1006.31 1006.80 1007.39 1007.84 1008.30 1008.76 1009.26 1009.69 1009.99 1010.23 1010.46 1010.73 1011.20 1011.64 1011.97 1012.16 1012.30 1012.44 1012.47 1012.57 1012.67 1012.86 1013.12 1013.27 1013.39 1013.55 1013.38 1013.46 1013.98 1013.95 1013.49 1013.49 1013.45 1013.98 1014.49 1014.54 1014.76 1014.95
1001.88 1002.74 1003.40 1004.12 1004.79 1005.33 1006.01 1006.43 1006.87 1007.30 1007.76 1008.21 1008.60 1008.84 1009.19 1009.37 1009.81 1010.39 1010.89 1011.30 1011.23 1011.17 1011.23 1011.36 1011.53 1011.66 1011.93 1012.24 1012.46 1012.45 1012.44 1012.39 1012.76 1012.93 1012.53 1011.91 1011.96 1012.14 1012.52 1012.78 1013.16 1013.86 1014.75
1001.10 1001.65 1002.16 1002.95 1003.65 1004.35 1004.94 1005.39 1005.66 1006.27 1006.78 1007.11 1007.45 1007.90 1008.17 1008.46 1008.89 1009.51 1010.38 1010.66 1010.37 1010.19 1010.28 1010.37 1010.63 1010.83 1011.08 1011.35 1011.57 1011.49 1011.34 1011.23 1011.23 1011.27 1011.01 1010.58 1010.64 1010.78 1011.34 1012.47 1012.69 1013.33 1013.51
1000.01 1000.42 1001.17 1001.92 1002.57 1003.17 1003.66 1004.16 1004.45 1005.07 1005.55 1006.13 1006.41 1006.62 1006.95 1007.38 1007.82 1008.41 1009.23 1009.54 1009.33 1009.37 1009.37 1009.31 1009.54 1009.79 1010.17 1010.42 1010.74 1010.78 1010.28 1010.29 1010.37 1010.15 1010.21 1010.35 1010.57 1010.41 1010.71 1010.90 1011.09 1011.80 1012.09
1000.08 1000.45 1000.96 1001.31 1001.70 1002.19 1002.78 1003.44 1003.94 1004.39 1004.91 1005.24 1005.45 1005.61 1005.88 1006.36 1006.82 1007.40 1008.11 1008.41 1008.22 1008.52 1008.31 1008.31 1008.45 1008.69 1009.01 1009.41 1009.63 1009.69 1009.31 1009.26 1009.10 1009.17 1009.15 1009.37 1009.66 1009.95 1009.80 1009.68 1010.09 1010.48 1010.99
999.65 999.96 1000.52 1001.01 1001.42 1001.93 1002.33 1002.84 1003.29 1003.81 1004.21 1004.46 1004.72 1004.80 1004.89 1005.33 1005.81 1006.34 1006.91 1007.21 1007.28 1007.44 1007.25 1007.33 1007.40 1007.68 1007.95 1008.20 1008.61 1008.61 1008.59 1008.92 1009.05 1008.83 1008.66 1008.68 1008.82 1008.86 1008.57 1008.61 1009.03 1009.25 1009.70
999.75 999.93 1000.09 1000.30 1000.63 1001.05 1001.70 1002.31 1002.89 1003.24 1003.47 1003.77 1004.00 1004.05 1004.13 1004.47 1004.81 1005.35 1005.96 1006.40 1006.67 1006.83 1006.46 1006.40 1006.55 1006.86 1007.18 1007.70 1008.15 1008.57 1008.63 1008.72 1008.67 1008.56 1008.14 1007.86 1007.71 1007.71 1007.91 1008.15 1008.11 1008.03 1007.65
999.83 999.88 1000.04 1000.21 1000.51 1000.82 1001.31 1001.85 1002.26 1002.63 1002.93 1003.15 1003.25 1003.29 1003.56 1003.84 1004.15 1004.65 1005.49 1005.99 1006.06 1006.25 1006.21 1006.13 1006.45 1006.79 1007.19 1007.50 1007.85 1008.21 1008.39 1008.41 1008.43 1008.19 1007.93 1007.53 1007.35 1007.44 1007.66 1007.92 1008.32 1008.53 1009.07
1000.32 1000.27 1000.06 1000.17 1000.39 1000.73 1001.34 1002.11 1002.13 1002.07 1002.15 1002.39 1002.37 1002.73 1003.06 1003.21 1003.37 1003.65 1004.04 1004.71 1005.06 1005.10 1005.44 1006.10 1006.55 1006.82 1007.16 1007.37 1007.56 1007.77 1007.90 1007.97 1007.95 1007.78 1007.65 1007.46 1007.49 1007.51 1007.93 1008.25 1008.66 1009.31 1009.99
1000.47 1000.32 1000.18 1000.06 1000.15 1000.68 1001.50 1002.48 1002.77 1002.67 1002.50 1002.32 1002.07 1002.05 1002.43 1002.77 1002.84 1003.00 1003.31 1003.52 1003.75 1004.43 1005.37 1005.65 1005.95 1006.35 1006.81 1007.16 1007.38 1007.55 1007.65 1007.64 1007.57 1007.53 1007.51 1007.42 1007.32 1007.43 1008.00 1008.31 1008.99 1009.39 1009.89
1000.77 1000.60 1000.39 1000.16 1000.06 1000.44 1001.11 1001.67 1002.40 1002.97 1002.77 1002.66 1002.52 1001.85 1001.99 1002.21 1002.99 1003.15 1003.25 1003.52 1003.97 1004.42 1004.78 1005.19 1005.67 1006.19 1006.66 1006.96 1007.23 1007.44 1007.56 1007.46 1007.46 1007.59 1007.74 1007.81 1007.81 1008.04 1008.27 1008.55 1009.12 1009.74 1010.40
1000.16 999.96 999.91 999.58 999.62 999.82 1000.07 1000.47 1001.09 1001.85 1002.36 1002.73 1002.93 1002.93 1002.77 1002.90 1003.12 1003.26 1003.32 1003.40 1004.51 1004.51 1004.79 1005.18 1005.65 1006.03 1006.44 1006.73 1006.98 1007.21 1007.43 1007.52 1007.59 1007.65 1007.78 1007.87 1008.14 1008.35 1008.67 1009.07 1009.44 1010.19 1011.08
999.83 999.52 999.01 998.65 998.61 998.80 999.29 999.91 1000.44 1001.14 1001.79 1002.60 1003.26 1003.46 1003.61 1003.41 1003.50 1003.52 1003.57 1003.80 1004.26 1004.69 1005.01 1005.35 1005.57 1005.85 1006.24 1006.54 1006.87 1007.21 1007.29 1007.53 1007.59 1007.55 1007.92 1008.02 1008.21 1008.61 1009.00 1009.31 1009.90 1010.26 1010.81
999.40 999.03 998.51 998.21 997.92 998.16 998.72 999.41 1000.03 1000.79 1001.53 1002.28 1002.96 1003.32 1003.67 1003.59 1003.72 1003.83 1003.75 1004.01 1004.32 1004.65 1005.02 1005.34 1005.54 1005.91 1006.23 1006.40 1006.59 1006.97 1007.35 1007.61 1007.58 1007.67 1007.69 1007.83 1008.15 1008.68 1009.05 1009.38 1009.86 1010.41 1011.05
999.10 998.75 998.18 997.89 997.51 997.38 997.97 998.70 999.52 1000.28 1001.13 1001.89 1002.57 1003.25 1003.39 1003.58 1003.83 1004.01 1004.11 1004.14 1004.37 1004.81 1004.93 1005.18 1005.46 1005.64 1005.86 1006.19 1006.47 1006.76 1007.13 1007.26 1007.61 1007.87 1007.89 1007.83 1008.24 1008.75 1009.03 1009.33 1009.86 1010.29 1010.98
998.55 998.50 998.07 998.03 997.57 997.86 998.14 998.72 999.21 1000.07 1000.91 1001.57 1002.52 1003.06 1003.43 1003.72 1003.95 1004.06 1004.23 1004.31 1004.47 1004.51 1004.62 1004.96 1005.25 1005.41 1005.58 1005.75 1006.02 1006.33 1006.65 1007.04 1007.36 1007.73 1007.92 1007.99 1008.03 1008.59 1009.09 1009.44 1009.59 1010.21 1010.91
998.05 998.24 998.17 998.18 997.96 997.85 998.92 999.28 999.87 1000.74 1001.54 1002.07 1002.63 1003.05 1003.51 1003.81 1004.01 1004.18 1004.25 1004.21 1004.35 1004.52 1004.62 1004.84 1005.05 1005.15 1005.30 1005.61 1005.82 1006.11 1006.45 1006.47 1006.51 1006.87 1007.33 1007.73 1008.02 1008.36 1008.68 1009.18 1009.62 1010.24 1010.81
997.59 998.12 998.27 998.86 999.15 998.79 998.69 1000.36 1001.15 1001.49 1002.29 1002.63 1003.12 1003.67 1004.01 1004.24 1004.37 1004.47 1004.36 1004.34 1004.39 1004.46 1004.60 1004.65 1004.67 1004.85 1005.23 1005.45 1005.57 1005.63 1005.73 1005.93 1005.91 1006.14 1006.53 1007.02 1007.50 1007.85 1008.14 1008.59 1009.23 1009.66 1010.11
997.91 998.20 998.64 998.57 1000.01 1000.39 1000.38 1001.19 1002.06 1002.73 1003.07 1003.38 1004.01 1004.53 1004.89 1005.05 1005.19 1005.37 1005.44 1005.33 1005.37 1005.33 1005.42 1005.26 1005.29 1005.36 1005.67 1005.78 1005.64 1005.40 1005.76 1005.68 1005.49 1005.75 1005.98 1006.44 1006.99 1007.42 1007.85 1008.01 1008.32 1008.89 1009.52
998.79 999.03 999.82 999.98 1000.69 1000.81 1002.30 1002.54 1003.20 1003.60 1004.09 1004.38 1004.99 1005.57 1005.88 1006.11 1006.47 1006.59 1006.50 1006.45 1006.44 1006.59 1006.77 1006.91 1007.00 1006.75 1006.67 1006.95 1007.12 1006.97 1006.22 1005.82 1005.57 1005.60 1005.68 1006.06 1006.39 1007.03 1007.30 1007.63 1007.89 1008.23 1008.79
Thickness
5834 5833 5830 5829 5828 5826 5824 5822 5821 5819 5818 5817 5817 5815 5811 5807 5805 5801 5799 5797 5795 5794 5794 5793 5793 5792 5788 5787 5784 5783 5780 5776 5768 5774 5774 5776 5771 5769 5763 5756 5753 5750 5746
5839 5837 5835 5834 5832 5829 5828 5827 5825 5822 5822 5821 5817 5815 5812 5810 5807 5805 5803 5801 5798 5796 5798 5797 5797 5794 5791 5790 5788 5785 5783 5781 5774 5767 5772 5773 5771 5768 5763 5758 5752 5748 5743
5842 5839 5838 5837 5836 5835 5833 5832 5829 5828 5826 5824 5820 5816 5815 5812 5811 5811 5808 5805 5804 5804 5803 5801 5799 5797 5795 5794 5791 5788 5784 5781 5775 5770 5768 5771 5771 5768 5764 5759 5753 5750 5743
5846 5844 5842 5843 5843 5841 5840 5838 5835 5833 5830 5827 5825 5822 5820 5818 5816 5815 5812 5810 5809 5809 5808 5806 5805 5803 5801 5797 5794 5792 5789 5783 5777 5772 5768 5766 5766 5765 5760 5753 5746 5742 5738
5851 5850 5851 5849 5849 5847 5844 5842 5840 5838 5836 5834 5829 5826 5826 5824 5822 5819 5818 5816 5815 5813 5813 5812 5812 5811 5809 5806 5799 5796 5790 5782 5776 5771 5765 5764 5765 5761 5759 5755 5748 5744 5742
5858 5857 5856 5854 5852 5849 5847 5846 5843 5840 5838 5836 5833 5833 5830 5832 5830 5827 5826 5822 5822 5820 5818 5818 5817 5815 5812 5810 5807 5803 5798 5789 5782 5775 5774 5768 5771 5768 5761 5756 5747 5734 5726
5860 5860 5858 5857 5854 5852 5852 5849 5846 5844 5842 5839 5838 5838 5836 5837 5835 5832 5829 5829 5826 5825 5824 5823 5823 5823 5820 5816 5811 5806 5803 5801 5796 5784 5778 5780 5776 5773 5762 5749 5747 5736 5731
5862 5861 5861 5860 5857 5857 5854 5852 5851 5849 5846 5844 5843 5843 5841 5842 5839 5834 5831 5831 5831 5832 5831 5829 5827 5825 5823 5818 5814 5812 5809 5806 5798 5790 5787 5790 5784 5778 5769 5760 5750 5737 5723
5862 5864 5868 5866 5863 5860 5858 5857 5857 5854 5852 5850 5849 5847 5846 5845 5842 5837 5830 5830 5833 5835 5835 5833 5830 5828 5825 5819 5814 5812 5811 5810 5806 5801 5796 5794 5788 5781 5770 5753 5743 5728 5715
5868 5871 5873 5870 5868 5866 5865 5864 5864 5861 5858 5856 5854 5855 5853 5850 5847 5841 5835 5835 5835 5835 5836 5837 5833 5831 5826 5821 5816 5812 5810 5808 5805 5805 5800 5791 5781 5775 5766 5757 5745 5724 5712
5863 5865 5865 5869 5869 5871 5868 5866 5864 5861 5859 5857 5856 5857 5857 5854 5852 5844 5838 5839 5840 5835 5837 5838 5838 5833 5827 5821 5816 5814 5812 5810 5807 5801 5799 5792 5781 5770 5764 5756 5741 5726 5713
5864 5865 5865 5867 5868 5867 5866 5865 5863 5860 5857 5856 5855 5856 5858 5857 5853 5848 5843 5841 5843 5839 5839 5841 5841 5835 5829 5823 5816 5814 5809 5801 5796 5792 5789 5783 5773 5765 5760 5752 5739 5727 5711
5856 5859 5861 5864 5866 5867 5863 5860 5858 5858 5857 5854 5853 5854 5856 5856 5856 5850 5844 5841 5839 5838 5843 5842 5838 5832 5826 5819 5810 5804 5800 5795 5788 5781 5779 5774 5770 5763 5754 5745 5739 5708 5714
5844 5849 5852 5854 5855 5857 5858 5857 5856 5855 5854 5853 5852 5853 5853 5853 5853 5851 5843 5838 5837 5835 5835 5834 5830 5825 5819 5813 5806 5799 5794 5789 5781 5775 5772 5768 5762 5755 5746 5736 5724 5714 5704
5832 5837 5844 5846 5846 5847 5846 5846 5852 5857 5856 5853 5854 5851 5848 5849 5851 5851 5848 5842 5839 5837 5833 5826 5819 5814 5809 5805 5800 5795 5790 5784 5777 5771 5764 5758 5750 5741 5733 5724 5711 5701 5691
5823 5828 5832 5837 5839 5838 5834 5831 5828 5833 5837 5840 5845 5850 5848 5847 5848 5845 5842 5840 5838 5830 5823 5818 5814 5809 5802 5796 5791 5786 5783 5778 5772 5764 5757 5750 5744 5737 5725 5717 5703 5691 5682
5811 5817 5824 5828 5832 5831 5829 5830 5829 5825 5825 5827 5830 5840 5841 5842 5834 5832 5831 5829 5825 5822 5818 5812 5806 5799 5794 5789 5783 5778 5773 5770 5765 5756 5747 5741 5733 5726 5719 5709 5699 5687 5676
5809 5813 5818 5826 5828 5831 5832 5832 5830 5826 5825 5824 5820 5821 5822 5822 5821 5821 5821 5822 5814 5812 5807 5802 5796 5791 5786 5779 5774 5770 5764 5759 5752 5746 5739 5734 5725 5719 5710 5701 5695 5684 5673
5804 5809 5817 5825 5827 5829 5829 5826 5824 5819 5816 5813 5810 5808 5805 5806 5807 5808 5808 5807 5802 5797 5793 5789 5786 5781 5775 5770 5764 5758 5754 5748 5742 5738 5729 5724 5718 5711 5704 5697 5688 5681 5675
5795 5802 5809 5817 5821 5822 5822 5818 5816 5810 5805 5802 5799 5798 5795 5798 5796 5795 5795 5792 5789 5785 5781 5777 5774 5769 5764 5759 5755 5748 5742 5736 5731 5725 5723 5717 5711 5704 5698 5693 5685 5678 5671
5785 5792 5800 5806 5812 5817 5816 5813 5807 5803 5798 5795 5790 5786 5784 5785 5782 5780 5778 5777 5775 5770 5768 5765 5761 5758 5754 5749 5744 5737 5731 5725 5719 5714 5710 5707 5701 5693 5689 5685 5677 5672 5663
5777 5780 5788 5792 5799 5800 5800 5798 5796 5791 5786 5782 5776 5770 5765 5769 5766 5765 5763 5761 5759 5758 5757 5753 5749 5747 5744 5739 5734 5728 5722 5715 5709 5702 5697 5695 5694 5686 5679 5674 5671 5665 5656
5768 5769 5772 5776 5782 5785 5778 5778 5775 5771 5767 5765 5762 5758 5755 5753 5751 5748 5748 5747 5746 5744 5743 5740 5737 5735 5731 5726 5723 5717 5710 5708 5704 5697 5691 5687 5683 5679 5673 5666 5661 5654 5647
5757 5756 5758 5755 5756 5764 5766 5752 5750 5749 5746 5745 5741 5738 5736 5734 5733 5732 5732 5732 5731 5731 5730 5728 5726 5722 5718 5715 5710 5707 5703 5700 5697 5694 5688 5682 5676 5671 5668 5662 5654 5649 5645
5739 5740 5739 5741 5731 5729 5732 5731 5725 5721 5721 5720 5716 5713 5710 5709 5708 5706 5706 5707 5707 5707 5705 5705 5704 5704 5701 5698 5696 5695 5689 5687 5687 5683 5679 5675 5667 5661 5657 5656 5653 5646 5639
5716 5715 5709 5710 5706 5708 5698 5698 5696 5696 5694 5692 5687 5683 5682 5681 5678 5677 5679 5679 5679 5678 5676 5673 5672 5674 5673 5668 5665 5665 5670 5671 5671 5671 5668 5664 5660 5652 5648 5644 5641 5638 5633